SCP
0 0 0 0 0 0 0 0 0 0 0 0 0 0 0 0 0 0 0 0 -0 0 0 0 0 0 0 0 1 0 0 0 0 0 0 0 0 0 0 0 0 0 0 1 1
0 0 0 0 0 0 0 0 0 0 0 0 0 0 0 0 0 0 0 0 -0 0 0 0 0 0 0 0 1 0 0 0 0 0 0 0 0 0 0 0 1 2 2 1 1
0 0 0 0 0 0 0 0 0 0 0 0 0 0 0 0 0 0 0 0 0 0 0 0 0 0 0 0 0 0 0 0 0 0 0 0 0 0 0 0 0 1 1 1 1
0 0 0 0 0 0 0 0 0 0 0 0 0 0 -0 0 0 0 0 0 0 -0 0 0 0 0 0 0 0 0 0 0 1 0 0 0 0 0 0 0 0 0 1 1 1
0 0 0 0 0 0 0 0 0 0 0 0 0 0 0 0 0 0 -0 -0 -0 0 0 0 0 0 0 0 0 0 0 0 0 1 0 0 0 0 0 0 0 0 1 1 1
0 0 0 0 0 0 0 0 0 0 0 0 0 0 0 0 0 0 -0 -0 0 0 -0 0 0 0 0 0 0 0 0 0 0 0 0 0 0 0 0 0 0 0 0 0 1
0 0 0 0 0 0 0 0 0 0 -0 0 0 0 0 0 0 0 0 0 -0 0 0 0 0 0 0 0 0 0 0 0 0 0 0 0 0 0 0 0 0 0 0 0 0
0 0 0 0 0 0 0 0 0 -0 -0 0 0 0 0 0 0 0 0 0 0 0 0 0 0 0 0 0 0 0 0 0 0 0 0 0 0 0 0 0 0 0 0 0 0
0 0 0 0 0 0 0 0 -0 -0 -0 0 0 0 0 0 0 0 0 0 0 0 0 0 0 0 0 0 0 0 -0 0 0 0 0 0 0 0 0 0 0 0 0 0 0
0 0 0 0 0 0 0 -0 0 -0 -0 0 0 0 0 0 0 0 0 0 0 0 0 0 0 0 0 0 0 0 0 0 0 0 0 0 0 0 0 0 0 0 0 0 0
0 0 0 0 0 0 0 0 0 0 0 0 0 0 0 0 0 0 0 0 0 0 0 0 0 0 0 0 0 0 0 0 0 0 0 0 0 0 0 0 0 0 0 0 0
0 0 0 0 0 0 0 0 0 0 0 0 0 0 0 0 0 0 0 0 0 0 0 0 0 0 0 0 0 0 0 0 0 -0 0 0 0 0 0 0 0 0 0 0 0
0 0 0 0 0 0 0 0 0 -0 0 0 0 0 0 0 0 0 0 0 0 0 0 0 -0 0 0 0 0 0 0 0 0 0 0 0 0 0 0 0 0 0 0 0 0
0 0 0 0 0 0 0 0 0 -0 0 0 0 0 0 0 0 0 0 0 0 0 0 0 0 0 0 0 0 0 0 0 0 0 0 0 0 0 0 0 -0 -0 0 0 0
0 0 0 0 0 0 0 0 -0 0 0 0 0 0 0 0 0 0 0 0 0 0 0 0 0 0 0 0 0 0 0 0 0 0 0 0 0 0 0 0 0 -0 -0 0 0
0 0 0 0 0 0 0 -0 -0 0 0 -0 0 0 0 0 0 0 0 0 0 0 0 0 0 0 0 0 0 0 0 0 0 0 0 0 0 0 0 0 0 0 0 0 0
0 0 0 0 0 0 0 0 0 0 -0 -0 -0 0 0 0 0 0 0 0 0 0 0 0 0 0 0 0 0 0 0 0 0 0 0 0 0 0 0 0 0 0 0 0 0
0 0 0 0 0 0 0 0 0 0 -0 -0 -0 0 0 0 0 0 0 0 0 0 0 0 0 0 0 0 0 0 0 0 0 0 0 0 0 0 0 0 0 0 0 0 0
0 0 0 0 -0 0 0 0 0 0 -0 -0 0 0 0 0 0 0 0 0 0 0 0 0 0 0 0 0 0 0 0 0 0 0 0 0 0 0 0 0 0 0 0 0 0
0 0 0 0 -0 0 0 0 0 -0 -0 -0 -0 -0 -0 0 0 0 0 0 0 0 0 0 0 0 0 0 0 0 0 0 0 0 0 0 0 0 0 0 0 0 0 0 0
0 0 0 -0 -0 0 0 0 0 -0 -0 -0 -0 -0 0 0 0 0 0 0 0 0 0 0 0 0 0 0 0 0 0 0 0 0 0 0 0 0 0 0 0 0 0 0 0
0 0 0 -0 0 0 0 -0 -0 -0 -0 -0 -0 0 0 0 0 0 0 0 0 0 0 0 0 0 0 0 0 0 0 0 0 0 0 0 0 0 0 0 0 0 0 0 -0
0 0 0 -0 0 0 0 -0 -0 -0 -0 -0 -0 -0 0 0 -0 0 0 0 0 0 0 0 0 0 0 0 0 0 0 0 0 0 0 0 0 0 0 0 0 0 0 0 0
0 0 0 -0 -0 0 0 0 -0 -0 -0 -0 -0 0 -0 -0 0 0 0 0 0 0 0 0 0 0 0 0 0 0 0 0 0 0 0 0 0 0 0 0 0 0 0 0 0
0 -0 0 0 -0 0 0 0 0 -0 -0 -0 -0 -0 -0 -0 0 0 0 0 0 0 0 0 0 0 0 0 0 0 0 0 0 0 0 0 0 0 0 0 0 0 0 0 0
0 0 -0 0 0 0 0 0 0 -0 -0 -0 0 0 -0 -0 -0 0 0 0 0 0 0 0 0 0 0 0 0 0 0 0 0 0 0 0 0 0 0 0 0 0 -0 0 0
0 0 0 0 0 0 0 0 0 -0 -0 -0 -0 -0 -0 0 0 0 0 0 0 0 0 0 0 0 0 0 0 0 0 0 0 0 0 0 0 0 0 0 0 0 0 0 0
Wind_Speed_500mb
39 36 32 34 34 35 33 34 25 25 27 32 27 26 22 19 18 23 32 31 31 23 16 23 39 36 25 28 39 43 9 11 11 9 13 28 11 8 10 27 28 14 24 38 53
39 35 38 38 38 41 32 34 31 25 24 28 24 23 20 18 20 26 30 29 26 47 25 22 39 35 19 17 27 17 11 14 5 1 19 30 25 17 9 30 21 36 31 47 59
37 35 37 39 41 42 37 25 34 26 26 28 23 19 20 12 18 9 12 12 17 24 24 21 37 35 13 13 22 27 14 6 4 8 33 28 11 15 26 9 17 32 32 41 63
39 36 35 40 45 42 41 29 26 26 23 27 23 19 17 4 7 9 15 17 18 17 19 22 28 26 11 16 18 10 25 31 2 4 13 13 20 11 22 21 32 23 24 41 52
37 37 37 40 43 42 37 27 21 25 20 24 20 15 10 8 14 13 18 20 13 16 28 8 15 31 12 20 8 16 8 33 25 7 12 23 17 18 38 35 36 28 21 39 48
36 40 38 41 39 37 38 27 21 22 22 22 15 7 11 9 4 12 24 16 11 11 8 21 13 24 14 15 22 17 22 12 36 21 12 13 11 13 25 31 30 31 27 28 38
35 38 43 33 34 30 38 31 21 23 19 15 11 8 15 23 11 7 19 23 16 8 19 33 13 4 6 10 32 31 20 11 19 20 8 14 7 3 19 28 25 28 24 20 19
33 39 33 36 33 28 34 32 21 17 11 8 4 6 11 13 19 19 9 10 18 3 13 38 22 14 9 14 17 15 2 9 10 10 6 11 18 10 15 10 15 19 15 21 16
37 33 30 35 32 29 27 21 9 7 5 5 1 6 12 14 15 26 33 22 4 7 2 30 21 8 14 10 9 4 6 7 8 7 9 4 4 20 27 33 31 23 20 18 27
39 29 30 29 28 26 19 3 1 2 5 4 1 13 13 9 19 7 3 18 9 9 2 5 2 7 3 12 16 15 13 9 13 3 6 5 13 9 39 39 42 43 40 31 27
38 35 27 24 25 23 5 6 6 4 5 6 6 14 12 14 11 2 2 5 14 15 3 4 2 11 7 5 15 20 18 17 10 16 9 27 23 19 23 34 37 38 48 57 44
36 34 24 25 23 12 15 7 6 3 7 10 6 16 11 10 7 7 6 6 4 8 14 6 17 10 12 10 8 21 23 10 14 21 20 19 22 17 17 16 41 44 40 38 51
33 31 23 18 10 11 20 6 5 5 3 3 7 9 6 7 4 7 2 9 7 11 14 7 8 10 1 6 14 8 15 13 19 18 12 14 10 13 18 29 36 37 39 37 41
29 26 15 1 12 18 5 2 6 1 6 6 3 5 4 2 3 4 5 6 8 8 9 8 13 7 7 16 11 9 27 25 20 14 8 10 6 12 29 20 21 44 39 41 39
22 18 11 15 20 11 6 4 6 4 7 7 8 9 8 6 3 1 8 6 13 18 7 4 15 13 31 20 11 14 33 28 23 10 8 4 5 12 12 21 24 35 53 39 34
14 7 3 24 16 7 9 14 10 8 6 10 7 7 5 17 5 1 6 5 3 18 17 11 9 7 9 4 25 2 22 19 7 1 4 11 10 10 8 13 9 13 51 51 38
4 6 15 19 13 15 21 11 4 9 5 7 5 4 9 7 9 11 10 6 6 8 9 10 10 10 4 4 9 8 14 6 5 5 5 5 6 14 8 8 11 17 21 18 7
16 16 20 18 19 24 15 4 10 7 9 9 5 8 5 6 3 8 6 8 7 13 6 4 6 12 15 5 7 2 7 8 9 7 6 2 10 9 5 16 22 22 20 15 12
26 21 19 20 26 18 7 3 4 7 7 6 4 6 4 2 6 8 4 8 9 2 7 5 8 9 2 8 6 4 8 7 10 6 8 6 6 7 6 14 27 33 35 30 15
34 24 11 19 16 13 2 6 7 5 3 7 4 4 1 7 5 4 4 7 4 7 7 6 11 11 6 7 6 10 7 7 6 5 6 7 5 6 10 15 15 18 22 24 23
37 20 14 18 21 5 3 3 7 7 1 5 2 3 4 5 9 7 4 3 4 3 8 7 6 1 5 9 8 10 5 6 7 7 7 5 8 9 19 19 18 13 8 9 13
30 7 19 24 6 8 5 6 11 9 6 2 1 3 3 3 12 9 6 3 5 5 4 4 8 7 4 9 8 1 3 3 7 6 3 7 6 6 15 16 26 18 8 4 6
32 13 20 13 7 7 6 6 6 10 5 8 3 1 4 6 8 11 8 10 14 9 4 6 5 6 5 10 4 4 5 2 5 5 4 8 7 3 14 10 7 17 26 22 13
17 7 9 16 10 5 10 9 7 8 8 7 6 6 3 7 9 7 5 3 10 6 8 6 7 10 9 6 9 8 9 8 9 5 3 7 4 7 14 15 23 26 24 21 23
15 10 16 11 11 10 3 16 13 8 8 12 6 10 3 6 10 8 8 7 8 7 8 5 6 5 7 9 7 4 10 14 13 11 10 7 5 10 6 9 12 19 28 25 24
20 10 22 14 16 11 2 8 15 7 7 7 9 9 16 8 7 11 10 5 4 1 4 5 2 5 7 6 7 2 5 9 14 8 9 7 11 9 16 14 27 33 25 31 37
20 18 13 22 10 10 8 7 14 16 8 18 16 14 14 5 15 23 17 12 9 11 5 6 8 5 4 5 6 8 9 7 3 4 14 13 4 4 12 19 29 24 36 38 41
Wind_Direction_500mb
344 341 335 330 326 314 324 328 321 319 327 328 333 328 327 310 297 283 275 301 272 228 271 231 219 209 231 217 208 203 191 209 206 218 171 148 146 178 86 99 77 90 148 163 150
339 332 336 325 322 322 306 321 327 316 319 323 333 334 334 312 301 282 298 283 233 232 251 220 205 195 205 222 196 190 196 203 134 23 176 166 158 149 123 107 97 98 122 147 158
332 328 324 324 321 325 315 303 316 317 321 324 327 334 334 320 323 305 303 268 256 249 238 220 222 204 201 226 197 175 198 194 106 308 159 146 116 150 134 72 118 138 144 163 172
324 327 321 310 318 321 324 281 310 315 317 320 324 321 329 265 285 319 344 315 286 257 229 232 204 196 208 191 208 170 224 222 187 225 126 115 121 62 130 117 103 113 134 159 175
317 322 315 312 315 320 322 315 283 312 296 313 323 339 10 291 274 310 331 331 319 251 223 213 228 198 214 185 214 181 216 192 200 139 76 115 99 115 114 123 112 119 108 152 168
319 321 316 309 313 325 322 318 273 305 297 306 315 338 349 276 303 305 318 324 318 248 242 218 329 229 221 204 186 135 156 218 187 221 257 105 80 112 148 131 123 125 110 128 173
317 313 317 311 308 313 310 315 273 274 300 304 306 318 295 255 255 296 296 320 315 234 204 217 324 35 315 196 168 126 129 327 120 158 240 150 24 184 160 147 142 139 129 120 143
315 311 320 316 314 311 304 309 273 276 300 305 291 318 267 234 267 258 288 287 310 254 216 207 250 322 239 140 123 182 83 144 48 356 218 121 213 224 206 173 187 178 160 162 154
318 320 315 313 313 313 305 315 280 279 310 299 162 296 286 264 280 298 279 236 248 284 201 207 256 246 189 147 109 114 123 179 9 113 250 189 138 270 228 229 227 222 206 187 184
318 319 303 308 306 314 332 51 51 52 91 37 358 295 268 262 317 356 95 192 228 201 108 122 58 283 197 159 166 159 123 166 179 98 212 304 266 255 221 210 227 220 222 224 211
314 315 307 300 298 302 80 115 57 44 161 226 279 270 291 314 321 44 345 181 201 171 112 50 101 239 222 139 110 115 115 145 164 152 211 198 225 252 258 226 223 242 232 231 227
312 316 302 300 302 306 132 77 44 357 307 276 281 277 279 282 308 329 51 124 200 133 113 128 219 277 313 298 167 157 137 144 127 171 207 180 221 241 251 243 216 226 233 237 235
312 311 303 304 49 85 129 109 297 231 228 215 274 273 270 328 336 332 81 120 94 111 166 150 140 205 82 283 224 144 162 169 137 170 201 158 287 263 262 237 250 244 237 231 234
311 308 300 103 103 100 95 220 197 214 56 291 353 252 292 120 309 340 133 130 143 119 100 80 155 120 255 226 173 172 203 163 128 145 163 152 236 231 230 238 237 252 250 241 234
306 305 286 151 130 113 161 166 162 108 69 306 303 305 300 254 214 320 125 165 135 188 179 147 123 153 151 169 155 248 164 155 142 212 111 109 42 264 152 216 228 237 242 235 223
299 293 170 150 142 157 149 133 137 58 278 340 274 285 292 35 61 56 204 185 163 70 63 55 56 14 7 95 181 120 81 49 46 296 61 198 160 290 205 202 196 201 234 230 226
190 141 141 133 133 130 131 139 98 90 360 282 260 276 90 5 36 25 15 29 67 88 32 43 334 312 192 91 50 113 97 99 52 42 182 201 118 242 309 95 134 138 98 111 176
153 131 147 159 147 144 137 139 76 149 200 258 235 257 118 182 53 41 2 20 92 69 107 93 100 343 349 29 177 117 115 140 133 155 209 336 189 259 167 106 89 79 83 78 60
153 143 125 143 140 152 139 103 143 176 231 205 190 306 78 131 120 95 1 355 54 80 110 114 60 311 296 329 30 318 50 183 99 44 79 227 260 28 100 73 80 72 64 52 46
151 129 157 152 154 149 137 105 145 183 270 205 234 243 123 152 140 119 73 293 41 360 39 124 97 322 324 336 21 93 186 56 15 107 169 245 187 215 129 118 91 71 70 60 45
146 130 171 159 146 144 150 175 125 192 281 32 197 358 176 197 179 131 143 110 155 289 341 128 101 276 31 14 13 14 20 44 115 135 155 139 288 221 159 135 122 135 107 109 76
151 109 171 166 158 211 180 200 131 157 181 219 54 261 280 97 25 85 98 111 155 160 50 44 102 75 94 298 308 171 286 86 111 294 44 125 274 350 123 130 143 169 95 95 78
140 115 170 177 172 192 150 149 180 155 216 172 186 332 327 75 97 105 93 9 97 43 46 353 78 90 26 342 342 282 238 17 44 61 188 122 251 157 136 122 47 43 40 34 6
139 130 160 200 247 206 156 163 151 169 161 168 152 229 238 88 84 105 89 94 49 80 36 27 121 154 176 209 151 182 201 188 115 111 212 204 129 25 24 58 55 50 39 23 12
166 183 173 178 230 216 268 154 147 150 193 201 195 224 227 95 94 94 73 86 31 20 19 76 108 82 82 62 88 137 190 194 183 189 157 227 204 100 107 111 74 41 20 26 15
162 156 171 172 177 157 236 200 156 108 130 208 181 84 94 94 174 134 154 170 149 311 5 33 75 87 344 37 48 351 271 233 210 186 237 242 274 72 54 34 24 22 36 16 2
179 166 175 165 149 125 202 169 142 123 68 61 120 101 87 135 87 110 140 136 153 152 149 102 118 80 250 358 22 324 244 265 198 111 201 220 94 27 22 3 5 40 25 9 356
Wind_Speed_850mb
39 36 32 34 34 35 33 34 25 25 27 32 27 26 22 19 18 23 32 31 31 23 16 23 39 36 25 28 39 43 9 11 11 9 13 28 11 8 10 27 28 14 24 38 53
39 35 38 38 38 41 32 34 31 25 24 28 24 23 20 18 20 26 30 29 26 47 25 22 39 35 19 17 27 17 11 14 5 1 19 30 25 17 9 30 21 36 31 47 59
37 35 37 39 41 42 37 25 34 26 26 28 23 19 20 12 18 9 12 12 17 24 24 21 37 35 13 13 22 27 14 6 4 8 33 28 11 15 26 9 17 32 32 41 63
39 36 35 40 45 42 41 29 26 26 23 27 23 19 17 4 7 9 15 17 18 17 19 22 28 26 11 16 18 10 25 31 2 4 13 13 20 11 22 21 32 23 24 41 52
37 37 37 40 43 42 37 27 21 25 20 24 20 15 10 8 14 13 18 20 13 16 28 8 15 31 12 20 8 16 8 33 25 7 12 23 17 18 38 35 36 28 21 39 48
36 40 38 41 39 37 38 27 21 22 22 22 15 7 11 9 4 12 24 16 11 11 8 21 13 24 14 15 22 17 22 12 36 21 12 13 11 13 25 31 30 31 27 28 38
35 38 43 33 34 30 38 31 21 23 19 15 11 8 15 23 11 7 19 23 16 8 19 33 13 4 6 10 32 31 20 11 19 20 8 14 7 3 19 28 25 28 24 20 19
33 39 33 36 33 28 34 32 21 17 11 8 4 6 11 13 19 19 9 10 18 3 13 38 22 14 9 14 17 15 2 9 10 10 6 11 18 10 15 10 15 19 15 21 16
37 33 30 35 32 29 27 21 9 7 5 5 1 6 12 14 15 26 33 22 4 7 2 30 21 8 14 10 9 4 6 7 8 7 9 4 4 20 27 33 31 23 20 18 27
39 29 30 29 28 26 19 3 1 2 5 4 1 13 13 9 19 7 3 18 9 9 2 5 2 7 3 12 16 15 13 9 13 3 6 5 13 9 39 39 42 43 40 31 27
38 35 27 24 25 23 5 6 6 4 5 6 6 14 12 14 11 2 2 5 14 15 3 4 2 11 7 5 15 20 18 17 10 16 9 27 23 19 23 34 37 38 48 57 44
36 34 24 25 23 12 15 7 6 3 7 10 6 16 11 10 7 7 6 6 4 8 14 6 17 10 12 10 8 21 23 10 14 21 20 19 22 17 17 16 41 44 40 38 51
33 31 23 18 10 11 20 6 5 5 3 3 7 9 6 7 4 7 2 9 7 11 14 7 8 10 1 6 14 8 15 13 19 18 12 14 10 13 18 29 36 37 39 37 41
29 26 15 1 12 18 5 2 6 1 6 6 3 5 4 2 3 4 5 6 8 8 9 8 13 7 7 16 11 9 27 25 20 14 8 10 6 12 29 20 21 44 39 41 39
22 18 11 15 20 11 6 4 6 4 7 7 8 9 8 6 3 1 8 6 13 18 7 4 15 13 31 20 11 14 33 28 23 10 8 4 5 12 12 21 24 35 53 39 34
14 7 3 24 16 7 9 14 10 8 6 10 7 7 5 17 5 1 6 5 3 18 17 11 9 7 9 4 25 2 22 19 7 1 4 11 10 10 8 13 9 13 51 51 38
4 6 15 19 13 15 21 11 4 9 5 7 5 4 9 7 9 11 10 6 6 8 9 10 10 10 4 4 9 8 14 6 5 5 5 5 6 14 8 8 11 17 21 18 7
16 16 20 18 19 24 15 4 10 7 9 9 5 8 5 6 3 8 6 8 7 13 6 4 6 12 15 5 7 2 7 8 9 7 6 2 10 9 5 16 22 22 20 15 12
26 21 19 20 26 18 7 3 4 7 7 6 4 6 4 2 6 8 4 8 9 2 7 5 8 9 2 8 6 4 8 7 10 6 8 6 6 7 6 14 27 33 35 30 15
34 24 11 19 16 13 2 6 7 5 3 7 4 4 1 7 5 4 4 7 4 7 7 6 11 11 6 7 6 10 7 7 6 5 6 7 5 6 10 15 15 18 22 24 23
37 20 14 18 21 5 3 3 7 7 1 5 2 3 4 5 9 7 4 3 4 3 8 7 6 1 5 9 8 10 5 6 7 7 7 5 8 9 19 19 18 13 8 9 13
30 7 19 24 6 8 5 6 11 9 6 2 1 3 3 3 12 9 6 3 5 5 4 4 8 7 4 9 8 1 3 3 7 6 3 7 6 6 15 16 26 18 8 4 6
32 13 20 13 7 7 6 6 6 10 5 8 3 1 4 6 8 11 8 10 14 9 4 6 5 6 5 10 4 4 5 2 5 5 4 8 7 3 14 10 7 17 26 22 13
17 7 9 16 10 5 10 9 7 8 8 7 6 6 3 7 9 7 5 3 10 6 8 6 7 10 9 6 9 8 9 8 9 5 3 7 4 7 14 15 23 26 24 21 23
15 10 16 11 11 10 3 16 13 8 8 12 6 10 3 6 10 8 8 7 8 7 8 5 6 5 7 9 7 4 10 14 13 11 10 7 5 10 6 9 12 19 28 25 24
20 10 22 14 16 11 2 8 15 7 7 7 9 9 16 8 7 11 10 5 4 1 4 5 2 5 7 6 7 2 5 9 14 8 9 7 11 9 16 14 27 33 25 31 37
20 18 13 22 10 10 8 7 14 16 8 18 16 14 14 5 15 23 17 12 9 11 5 6 8 5 4 5 6 8 9 7 3 4 14 13 4 4 12 19 29 24 36 38 41
Wind_Direction_850mb
344 341 335 330 326 314 324 328 321 319 327 328 333 328 327 310 297 283 275 301 272 228 271 231 219 209 231 217 208 203 191 209 206 218 171 148 146 178 86 99 77 90 148 163 150
339 332 336 325 322 322 306 321 327 316 319 323 333 334 334 312 301 282 298 283 233 232 251 220 205 195 205 222 196 190 196 203 134 23 176 166 158 149 123 107 97 98 122 147 158
332 328 324 324 321 325 315 303 316 317 321 324 327 334 334 320 323 305 303 268 256 249 238 220 222 204 201 226 197 175 198 194 106 308 159 146 116 150 134 72 118 138 144 163 172
324 327 321 310 318 321 324 281 310 315 317 320 324 321 329 265 285 319 344 315 286 257 229 232 204 196 208 191 208 170 224 222 187 225 126 115 121 62 130 117 103 113 134 159 175
317 322 315 312 315 320 322 315 283 312 296 313 323 339 10 291 274 310 331 331 319 251 223 213 228 198 214 185 214 181 216 192 200 139 76 115 99 115 114 123 112 119 108 152 168
319 321 316 309 313 325 322 318 273 305 297 306 315 338 349 276 303 305 318 324 318 248 242 218 329 229 221 204 186 135 156 218 187 221 257 105 80 112 148 131 123 125 110 128 173
317 313 317 311 308 313 310 315 273 274 300 304 306 318 295 255 255 296 296 320 315 234 204 217 324 35 315 196 168 126 129 327 120 158 240 150 24 184 160 147 142 139 129 120 143
315 311 320 316 314 311 304 309 273 276 300 305 291 318 267 234 267 258 288 287 310 254 216 207 250 322 239 140 123 182 83 144 48 356 218 121 213 224 206 173 187 178 160 162 154
318 320 315 313 313 313 305 315 280 279 310 299 162 296 286 264 280 298 279 236 248 284 201 207 256 246 189 147 109 114 123 179 9 113 250 189 138 270 228 229 227 222 206 187 184
318 319 303 308 306 314 332 51 51 52 91 37 358 295 268 262 317 356 95 192 228 201 108 122 58 283 197 159 166 159 123 166 179 98 212 304 266 255 221 210 227 220 222 224 211
314 315 307 300 298 302 80 115 57 44 161 226 279 270 291 314 321 44 345 181 201 171 112 50 101 239 222 139 110 115 115 145 164 152 211 198 225 252 258 226 223 242 232 231 227
312 316 302 300 302 306 132 77 44 357 307 276 281 277 279 282 308 329 51 124 200 133 113 128 219 277 313 298 167 157 137 144 127 171 207 180 221 241 251 243 216 226 233 237 235
312 311 303 304 49 85 129 109 297 231 228 215 274 273 270 328 336 332 81 120 94 111 166 150 140 205 82 283 224 144 162 169 137 170 201 158 287 263 262 237 250 244 237 231 234
311 308 300 103 103 100 95 220 197 214 56 291 353 252 292 120 309 340 133 130 143 119 100 80 155 120 255 226 173 172 203 163 128 145 163 152 236 231 230 238 237 252 250 241 234
306 305 286 151 130 113 161 166 162 108 69 306 303 305 300 254 214 320 125 165 135 188 179 147 123 153 151 169 155 248 164 155 142 212 111 109 42 264 152 216 228 237 242 235 223
299 293 170 150 142 157 149 133 137 58 278 340 274 285 292 35 61 56 204 185 163 70 63 55 56 14 7 95 181 120 81 49 46 296 61 198 160 290 205 202 196 201 234 230 226
190 141 141 133 133 130 131 139 98 90 360 282 260 276 90 5 36 25 15 29 67 88 32 43 334 312 192 91 50 113 97 99 52 42 182 201 118 242 309 95 134 138 98 111 176
153 131 147 159 147 144 137 139 76 149 200 258 235 257 118 182 53 41 2 20 92 69 107 93 100 343 349 29 177 117 115 140 133 155 209 336 189 259 167 106 89 79 83 78 60
153 143 125 143 140 152 139 103 143 176 231 205 190 306 78 131 120 95 1 355 54 80 110 114 60 311 296 329 30 318 50 183 99 44 79 227 260 28 100 73 80 72 64 52 46
151 129 157 152 154 149 137 105 145 183 270 205 234 243 123 152 140 119 73 293 41 360 39 124 97 322 324 336 21 93 186 56 15 107 169 245 187 215 129 118 91 71 70 60 45
146 130 171 159 146 144 150 175 125 192 281 32 197 358 176 197 179 131 143 110 155 289 341 128 101 276 31 14 13 14 20 44 115 135 155 139 288 221 159 135 122 135 107 109 76
151 109 171 166 158 211 180 200 131 157 181 219 54 261 280 97 25 85 98 111 155 160 50 44 102 75 94 298 308 171 286 86 111 294 44 125 274 350 123 130 143 169 95 95 78
140 115 170 177 172 192 150 149 180 155 216 172 186 332 327 75 97 105 93 9 97 43 46 353 78 90 26 342 342 282 238 17 44 61 188 122 251 157 136 122 47 43 40 34 6
139 130 160 200 247 206 156 163 151 169 161 168 152 229 238 88 84 105 89 94 49 80 36 27 121 154 176 209 151 182 201 188 115 111 212 204 129 25 24 58 55 50 39 23 12
166 183 173 178 230 216 268 154 147 150 193 201 195 224 227 95 94 94 73 86 31 20 19 76 108 82 82 62 88 137 190 194 183 189 157 227 204 100 107 111 74 41 20 26 15
162 156 171 172 177 157 236 200 156 108 130 208 181 84 94 94 174 134 154 170 149 311 5 33 75 87 344 37 48 351 271 233 210 186 237 242 274 72 54 34 24 22 36 16 2
179 166 175 165 149 125 202 169 142 123 68 61 120 101 87 135 87 110 140 136 153 152 149 102 118 80 250 358 22 324 244 265 198 111 201 220 94 27 22 3 5 40 25 9 356